COSMOS 2251 DEB, 37533

Orbit data source: Space-Track

COSMOS 2251 DEB, 37533 is space debris in LEO originally from a launch on Wed, 16 Jun 1993 UTC launched from the Plesetsk Missile And Space Complex (PKMTR). The debris from Iridium 33, an American commercial communications satellite, has been tracked extensively since its accidental collision with the defunct Russian satellite Cosmos 2251 in 2009. This event, occurring at high speed in low Earth orbit (LEO), generated thousands of pieces of space debris, significantly increasing the risk of further collisions. The Iridium 33 debris cloud has impacted space traffic management and orbital debris mitigation strategies, making it a subject of ongoing study in space situational awareness.

Loading next visibility...
Identifier
37533, 1993-036BNN
Orbit
LEO
Country
Flag of CISCIS
Related business
Manufacturer
Unknown
Mission
Spacecraft
Bus & Motor
Unknown
Mass
Unknown
Launch date (UTC)
1993-06-16 (33 years ago)
Launch vehicle
Unknown
Launch site
Plesetsk Missile And Space Complex (PKMTR)
Object type
Payload
Rocket body
Debris
Shape & HBR
Unknown shape, 0.1 m
Radar Cross Section
Small (<0.1 m²)

Expand to show TLE details & history
Last TLE update: 2 weeks ago

TLE from 2 weeks ago
0 COSMOS 2251 DEB
1 37533U 93036BNN 26199.19324242  .00000801  00000-0  39149-3 0  9994
2 37533  74.0672 168.0526 0156776 173.3063 187.0225 14.13282725659923
Epoch: 2026-07-18T04:38Z
TLE epoch observation values (Epoch: 2026-07-18T04:38:16.145Z)
Latitude
-0.00005°
Longitude
162.47581°
Altitude
963.232 km
Speed
7.313 km/s
True Right ascension
11h 12m 12s
True Declination
0° 00' 00"
Sunlit
Object was in daylight at epoch
Visualization orbit readout
Latitude
Unknown
Longitude
Unknown
Altitude
Unknown
Speed
Unknown
Apparent Right ascension
Unknown
Apparent Declination
Unknown
Sunlit
N/A
Visualization observer readout
Local Sidereal Time
07:33:26
Azimuth
Unknown
Elevation
Unknown
Doppler factor
Unknown
Orbital elements
Apogee altitude
959.06 km
Perigee altitude
732.552 km
Semi-major axis
7,223.943 km
Eccentricity
0.01568
Inclination
74.0672°
RAAN
168.0526°
Arg. of periapsis
173.3063°
True anomaly
186.80705°
Mean anomaly
187.0225°
Eccentric anomaly
186.91436°
Mean motion
3.53494 °/min
Orbital period
101.84 mins
BSTAR
0.00039149
Loading maneuver chart data...
Computing Atmospheric mass density...

Documentation

Showing up to 5 results
|